FENGYUN 1C DEB, 30837

Orbit data source: Space-Track

FENGYUN 1C DEB, 30837 is space debris in SSO originally from a launch on Mon, 10 May 1999 UTC launched from the Taiyaun Space Center, China (TSC). Fengyun 1C debris stems from the Chinese weather satellite Fengyun-1C, which was intentionally destroyed by a Chinese anti-satellite missile in 2007. This event dramatically increased the amount of space debris, with thousands of trackable fragments posing hazards to satellites and human spaceflight. The Fengyun 1C debris cloud has become a focal point in discussions about space sustainability and the need for international regulations to prevent the creation of new debris.

Loading next visibility...
Identifier
30837, 1999-025AVX
Orbit
SSO
Country
Flag of CNCN / PRC
Related business
Manufacturer
Unknown
Mission
Spacecraft
Bus & Motor
Unknown
Mass
Unknown
Launch date (UTC)
1999-05-10 (27 years ago)
Launch vehicle
Unknown
Launch site
Taiyaun Space Center, China (TSC)
Object type
Payload
Rocket body
Debris
Shape & HBR
Unknown shape, 0.1 m
Radar Cross Section
Small (<0.1 m²)

Expand to show TLE details & history
Last TLE update: 16 hours ago

TLE from 16 hours ago
0 FENGYUN 1C DEB
1 30837U 99025AVX 25353.44621389  .00000434  00000-0  24687-3 0  9992
2 30837  98.6790 339.4939 0033199 114.7059  37.3307 14.14529792969139
Epoch: 2025-12-19T10:42Z
TLE epoch observation values (Epoch: 2025-12-19T10:42:32.880Z)
Latitude
27.42834°
Longitude
-84.91072°
Altitude
828.222 km
Speed
7.451 km/s
True Right ascension
10h 56m 03s
True Declination
27° 17' 22"
Sunlit
Object was in daylight at epoch
Visualization orbit readout
Latitude
Unknown
Longitude
Unknown
Altitude
Unknown
Speed
Unknown
Apparent Right ascension
Unknown
Apparent Declination
Unknown
Sunlit
N/A
Visualization observer readout
Local Sidereal Time
01:09:19
Azimuth
Unknown
Elevation
Unknown
Doppler factor
Unknown
Orbital elements
Apogee altitude
865.044 km
Perigee altitude
817.11 km
Semi-major axis
7,219.214 km
Eccentricity
0.00332
Inclination
98.679°
RAAN
339.4939°
Arg. of periapsis
114.7059°
True anomaly
37.56216°
Mean anomaly
37.3307°
Eccentric anomaly
37.44635°
Mean motion
3.53841 °/min
Orbital period
101.74 mins
BSTAR
0.00024687
Loading maneuver chart data...
Computing Atmospheric mass density...

Documentation

Showing up to 5 results
|